map of ADA home
Great Circle Mapper logo
ADA - Airport
Location
City:  Adana, Turkey
ICAO / IATA:LTAF / ADA

Details
Type:Airport (Aerodrome, Airfield)
Use:Public/Civil
Latitude:3658'56"N (36.982166)
Longitude:3516'49"E (35.280388)
Datum:WGS 1984
Elevation:65 ft (20 m)
Variation:5.13E (WMM2015 magnetic declination)
0.09 annual change
Runways:1
Longest:9022 × 148 ft (2750 × 45 m), paved

Time
Time Zone:UTC+2 (DST+3)
Local Time:

Weather
METAR:LTAF 260850Z 19008KT 140V220 9999 SCT035 26/13 Q1011 NOSIG

Related Locations
Nearby:
Farthest:NTAV: 11511 mi / 18526 km
Raivavae, Tubuai Islands, Austral Islands, PF

Find:

   beyond  
but within

Other Information
Maps:
NOTAMs:
Links:
Sources:

  
flag of Turkey   

Sectional Chart

Flight Planning
at skyvector.com

Satellite Image

Google Maps Satellite View

 

Copyright © 2004-2015 Karl L. Swartz. All rights reserved.
The Great Circle Mapper name and logo are trademarks of the Great Circle Mapper.
All other trademarks mentioned herein belong to their respective owners.
Please see credits for attibutions and further copyright information.

  Follow gcmap on Facebook Follow gcmap on Twitter Follow gcmap on Google+

hCard Microformat

Geo Microformat